This demonstration page uses our WeatherBlox Daily Observations layout. Learn more.

Left ArrowRight Arrow

Hourly Observations for August 27, 2021

Temp ( °F °C ) Dew Point ( °F °C ) Humidity (%) Winds ( mph kmh ) Pressure ( in mb ) Visibility ( mi km ) Precip ( " mm )
12:53 am 00:53 Cloudy with Haze 76 24.4 43 6.1 31 31 N 5 7 29.81 1010 3 4 0.00 0.00
1:53 am 01:53 Mostly Cloudy with Haze 74 23.3 43 6.1 33 33 NNW 7 11 29.81 1009 3 4 0.00 0.00
2:04 am 02:04 Hazy 76 24.4 42 5.6 30 30 N 6 9 29.81 1009 3 5 0.00 0.00
2:12 am 02:12 Hazy 71 21.7 43 6.1 36 36 N 3 6 29.82 1010 3 4 0.00 0.00
2:48 am 02:48 Hazy 77 25 43 6 30 30 NNW 7 11 29.81 1009 3 5 0.00 0.00
2:53 am 02:53 Mostly Cloudy with Haze 77 25 42 5.6 29 29 NNW 7 11 29.80 1009 3 5 0.00 0.00
3:53 am 03:53 Cloudy with Smoke 78 25.6 42 5.6 28 28 NNW 8 13 29.80 1009 7 11 0.00 0.00
4:53 am 04:53 Mostly Cloudy with Smoke 77 25 42 5.6 29 29 NNW 7 11 29.80 1009 10 16 0.00 0.00
5:53 am 05:53 Mostly Clear with Smoke 77 25 43 6.1 30 30 NNW 7 11 29.80 1009 10 16 0.00 0.00
6:53 am 06:53 Sunny with Smoke 77 25 44 6.7 31 31 NNW 8 13 29.81 1009 10 16 0.00 0.00
7:53 am 07:53 Sunny with Smoke 79 26.1 45 7.2 30 30 NNW 13 20 29.81 1009 10 16 0.00 0.00
8:53 am 08:53 Sunny with Smoke 83 28.3 43 6.1 24 24 NNW 14 22 29.81 1010 8 13 0.00 0.00
9:53 am 09:53 Hazy 86 30 42 5.6 21 21 N 15 24 29.80 1009 6 10 0.00 0.00
10:53 am 10:53 Sunny with Smoke 90 32.2 39 3.9 17 17 N 16 26 29.79 1009 7 11 0.00 0.00
11:53 am 11:53 Hazy 94 34.4 31 -0.6 11 11 N 16 26 29.76 1008 5 8 0.00 0.00
12:53 pm 12:53 Hazy 96 35.6 33 0.6 11 11 N 18 30 29.73 1007 5 8 0.00 0.00
1:53 pm 13:53 Sunny with Smoke 100 37.8 30 -1.1 8 8 NNE 17 28 29.71 1006 7 11 0.00 0.00
2:53 pm 14:53 Sunny with Smoke 101 38.3 32 0 9 9 N 15 24 29.67 1005 8 13 0.00 0.00
3:53 pm 15:53 Sunny with Smoke 102 38.9 29 -1.7 8 8 N 12 19 29.66 1004 10 16 0.00 0.00
4:53 pm 16:53 Sunny with Smoke 103 39.4 30 -1.1 8 8 NNW 12 19 29.64 1004 9 14 0.00 0.00
5:53 pm 17:53 Sunny with Smoke 103 39.4 30 -1.1 8 8 NNW 7 11 29.63 1003 9 14 0.00 0.00
6:53 pm 18:53 Partly Cloudy with Smoke 101 38.3 31 -0.6 8 8 NNW 7 11 29.62 1003 9 14 0.00 0.00
7:53 pm 19:53 Mostly Clear with Smoke 96 35.6 34 1.1 11 11 NNW 5 7 29.62 1003 8 13 0.00 0.00
8:53 pm 20:53 Clear with Smoke 92 33.3 34 1.1 13 13 NNW 6 9 29.64 1004 7 11 0.00 0.00
9:53 pm 21:53 Clear with Smoke 88 31.1 35 1.7 15 15 NNW 5 7 29.66 1004 9 14 0.00 0.00
10:53 pm 22:53 Clear with Smoke 86 30 35 1.7 16 16 NNW 6 9 29.67 1005 9 14 0.00 0.00
11:53 pm 23:53 Clear with Smoke 85 29.4 35 1.7 17 17 NNW 6 9 29.67 1005 8 13 0.00 0.00

Powered by AerisWeather